TimeEDT,TemperatureF,Dew PointF,Humidity,Sea Level PressureIn,VisibilityMPH,Wind Direction,Wind SpeedMPH,Gust SpeedMPH,PrecipitationIn,Events,Conditions,WindDirDegrees,DateUTC
12:15 AM,59.5,56.8,91,30.21,10.0,Calm,Calm,-,N/A,,Clear,0,2013-08-24 04:15:00
12:35 AM,56.5,53.6,90,30.21,10.0,Calm,Calm,-,N/A,,Clear,0,2013-08-24 04:35:00
12:54 AM,56.8,54.5,92,30.21,10.0,Calm,Calm,-,N/A,,Clear,0,2013-08-24 04:54:00
1:15 AM,56.3,53.6,91,30.21,10.0,Calm,Calm,-,N/A,,Clear,0,2013-08-24 05:15:00
1:35 AM,55.8,53.6,92,30.22,10.0,Calm,Calm,-,N/A,,Clear,0,2013-08-24 05:35:00
1:54 AM,56.1,54.0,92,30.22,10.0,Calm,Calm,-,N/A,,Clear,0,2013-08-24 05:54:00
2:15 AM,55.2,53.2,93,30.22,5.0,Calm,Calm,-,N/A,,Clear,0,2013-08-24 06:15:00
2:35 AM,55.9,54.1,94,30.22,4.0,Calm,Calm,-,N/A,,Clear,0,2013-08-24 06:35:00
2:54 AM,55.2,53.1,92,30.22,10.0,Calm,Calm,-,N/A,,Clear,0,2013-08-24 06:54:00
3:15 AM,55.2,53.1,92,30.22,10.0,Calm,Calm,-,N/A,,Clear,0,2013-08-24 07:15:00
3:35 AM,54.3,52.3,93,30.23,10.0,Calm,Calm,-,N/A,,Clear,0,2013-08-24 07:35:00
3:54 AM,54.0,52.0,93,30.23,10.0,Calm,Calm,-,N/A,,Clear,0,2013-08-24 07:54:00
4:15 AM,53.4,51.6,94,30.24,5.0,Calm,Calm,-,N/A,,Clear,0,2013-08-24 08:15:00
4:34 AM,52.7,50.9,94,30.24,1.5,Calm,Calm,-,N/A,,Mist,0,2013-08-24 08:34:00
4:55 AM,53.6,51.4,92,30.25,10.0,Calm,Calm,-,N/A,,Clear,0,2013-08-24 08:55:00
5:15 AM,53.2,51.3,93,30.26,10.0,Calm,Calm,-,N/A,,Clear,0,2013-08-24 09:15:00
5:34 AM,54.1,52.2,93,30.26,10.0,Calm,Calm,-,N/A,,Clear,0,2013-08-24 09:34:00
5:55 AM,53.4,51.6,94,30.27,10.0,Calm,Calm,-,N/A,,Clear,0,2013-08-24 09:55:00
6:15 AM,53.6,51.8,94,30.27,5.0,Calm,Calm,-,N/A,,Clear,0,2013-08-24 10:15:00
6:34 AM,52.5,51.1,95,30.28,7.0,Calm,Calm,-,N/A,,Clear,0,2013-08-24 10:34:00
6:55 AM,52.5,50.7,94,30.29,10.0,Calm,Calm,-,N/A,,Clear,0,2013-08-24 10:55:00
7:15 AM,52.5,50.9,94,30.30,4.0,Calm,Calm,-,N/A,,Clear,0,2013-08-24 11:15:00
7:35 AM,54.0,52.0,93,30.30,10.0,Calm,Calm,-,N/A,,Clear,0,2013-08-24 11:35:00
7:55 AM,56.3,54.1,92,30.30,10.0,Calm,Calm,-,N/A,,Clear,0,2013-08-24 11:55:00
8:15 AM,57.6,55.4,92,30.31,10.0,Calm,Calm,-,N/A,,Clear,0,2013-08-24 12:15:00
8:35 AM,59.5,57.0,91,30.31,10.0,Calm,Calm,-,N/A,,Clear,0,2013-08-24 12:35:00
8:55 AM,61.7,59.2,91,30.31,10.0,Calm,Calm,-,N/A,,Clear,0,2013-08-24 12:55:00
9:15 AM,64.8,60.4,86,30.32,10.0,Calm,Calm,-,N/A,,Clear,0,2013-08-24 13:15:00
9:35 AM,66.6,60.8,82,30.32,10.0,ESE,3.5,-,N/A,,Clear,120,2013-08-24 13:35:00
9:54 AM,67.6,60.8,79,30.32,10.0,Calm,Calm,-,N/A,,Clear,0,2013-08-24 13:54:00
10:15 AM,70.2,61.3,74,30.32,10.0,Calm,Calm,-,N/A,,Clear,0,2013-08-24 14:15:00
10:35 AM,73.2,59.4,62,30.32,10.0,SE,5.8,-,N/A,,Clear,130,2013-08-24 14:35:00
10:54 AM,74.5,57.9,56,30.31,10.0,SSE,5.8,-,N/A,,Clear,150,2013-08-24 14:54:00
11:15 AM,75.6,58.8,56,30.32,10.0,South,6.9,-,N/A,,Clear,170,2013-08-24 15:15:00
11:34 AM,76.5,59.4,55,30.31,10.0,South,6.9,-,N/A,,Clear,190,2013-08-24 15:34:00
11:55 AM,77.9,57.9,50,30.31,10.0,SE,5.8,-,N/A,,Clear,130,2013-08-24 15:55:00
12:15 PM,78.4,54.7,44,30.31,10.0,SSE,5.8,-,N/A,,Clear,150,2013-08-24 16:15:00
12:34 PM,79.0,55.4,44,30.30,10.0,ESE,5.8,-,N/A,,Clear,110,2013-08-24 16:34:00
12:55 PM,79.5,54.7,42,30.30,10.0,East,8.1,-,N/A,,Clear,100,2013-08-24 16:55:00
1:15 PM,79.5,52.7,39,30.30,10.0,ESE,4.6,-,N/A,,Clear,120,2013-08-24 17:15:00
1:34 PM,80.1,52.7,39,30.29,10.0,ESE,8.1,-,N/A,,Clear,110,2013-08-24 17:34:00
1:55 PM,80.6,52.9,38,30.29,10.0,Calm,Calm,-,N/A,,Clear,0,2013-08-24 17:55:00
2:15 PM,80.8,52.9,38,30.29,10.0,SE,4.6,-,N/A,,Clear,140,2013-08-24 18:15:00
2:34 PM,80.8,53.1,38,30.29,10.0,ESE,5.8,-,N/A,,Clear,110,2013-08-24 18:34:00
2:55 PM,81.5,53.1,37,30.29,10.0,SSE,6.9,-,N/A,,Clear,150,2013-08-24 18:55:00
3:15 PM,81.5,54.7,40,30.28,10.0,SW,5.8,-,N/A,,Clear,220,2013-08-24 19:15:00
3:35 PM,82.0,52.2,35,30.27,10.0,ESE,4.6,-,N/A,,Clear,110,2013-08-24 19:35:00
3:55 PM,82.0,53.6,37,30.28,10.0,South,4.6,-,N/A,,Clear,170,2013-08-24 19:55:00
4:15 PM,81.5,54.3,39,30.27,10.0,SSW,5.8,-,N/A,,Clear,210,2013-08-24 20:15:00
4:35 PM,81.5,53.8,38,30.27,10.0,Calm,Calm,-,N/A,,Clear,0,2013-08-24 20:35:00
4:55 PM,81.7,54.5,39,30.27,10.0,SSW,4.6,-,N/A,,Clear,210,2013-08-24 20:55:00
5:14 PM,81.7,53.4,38,30.26,10.0,SE,5.8,-,N/A,,Clear,130,2013-08-24 21:14:00
5:35 PM,81.0,54.1,39,30.26,10.0,Calm,Calm,-,N/A,,Clear,0,2013-08-24 21:35:00
5:55 PM,80.8,54.0,39,30.26,10.0,SW,3.5,-,N/A,,Clear,230,2013-08-24 21:55:00
6:14 PM,80.8,53.8,39,30.25,10.0,SSW,3.5,-,N/A,,Clear,210,2013-08-24 22:14:00
6:35 PM,80.6,54.3,40,30.25,10.0,SSW,8.1,-,N/A,,Clear,200,2013-08-24 22:35:00
6:55 PM,79.9,53.8,40,30.26,10.0,South,4.6,-,N/A,,Clear,180,2013-08-24 22:55:00
7:14 PM,79.7,54.5,42,30.25,10.0,Calm,Calm,-,N/A,,Clear,0,2013-08-24 23:14:00
7:35 PM,79.2,54.7,43,30.25,10.0,Calm,Calm,-,N/A,,Clear,0,2013-08-24 23:35:00
7:55 PM,78.1,57.6,49,30.26,10.0,Calm,Calm,-,N/A,,Clear,0,2013-08-24 23:55:00
8:15 PM,73.9,59.2,60,30.26,10.0,Calm,Calm,-,N/A,,Clear,0,2013-08-25 00:15:00
8:35 PM,71.4,58.8,64,30.26,10.0,Calm,Calm,-,N/A,,Clear,0,2013-08-25 00:35:00
8:55 PM,69.3,59.4,71,30.26,10.0,Calm,Calm,-,N/A,,Clear,0,2013-08-25 00:55:00
9:15 PM,67.6,59.9,76,30.27,10.0,ESE,3.5,-,N/A,,Clear,110,2013-08-25 01:15:00
9:35 PM,68.2,61.2,78,30.27,7.0,Calm,Calm,-,N/A,,Clear,0,2013-08-25 01:35:00
9:55 PM,71.2,59.0,65,30.27,10.0,SE,4.6,-,N/A,,Clear,130,2013-08-25 01:55:00
10:15 PM,70.2,58.6,67,30.27,10.0,SE,4.6,-,N/A,,Clear,130,2013-08-25 02:15:00
10:35 PM,70.0,58.6,67,30.27,10.0,SE,4.6,-,N/A,,Clear,130,2013-08-25 02:35:00
10:55 PM,68.9,59.0,71,30.27,10.0,ESE,3.5,-,N/A,,Clear,120,2013-08-25 02:55:00
11:15 PM,66.6,58.3,75,30.27,10.0,Calm,Calm,-,N/A,,Clear,0,2013-08-25 03:15:00
11:34 PM,64.2,58.1,80,30.27,10.0,Calm,Calm,-,N/A,,Clear,0,2013-08-25 03:34:00
11:55 PM,62.8,57.9,84,30.27,10.0,Calm,Calm,-,N/A,,Clear,0,2013-08-25 03:55:00